Weather History for Cedar City, UT

Change the Weather History Date:

Tuesday, February 12, 2013

  Actual Average Record
Temperature  
Mean Temperature 16 °F 33 °F  
Max Temperature 34 °F 45 °F 61 °F (1996)
Min Temperature -2 °F 20 °F -7 °F (1965)
Degree Days  
Heating Degree Days 49 32  
Month to date heating degree days 410 401  
Since 1 July heating degree days 4058 4076  
Cooling Degree Days 0 0  
Month to date cooling degree days 0 0  
Year to date cooling degree days 0 0  
Moisture  
Dew Point 7 °F    
Average Humidity 71    
Maximum Humidity 92    
Minimum Humidity 49    
Precipitation  
Precipitation 0.00 in 0.04 in 0.57 in (1962)
Month to date precipitation 0.69 0.39  
Year to date precipitation 1.67 1.25  
Sea Level Pressure  
Sea Level Pressure 30.41 in    
Wind  
Wind Speed 3 mph (NE)    
Max Wind Speed 10 mph    
Max Gust Speed 14 mph    
Visibility 10 miles    
Events      
T = Trace of Precipitation, MM = Missing Value Source: NWS Daily Summary

Daily Weather History Graph

Daily Weather History Graph

Search for Another Location

Airport:

Trip Planner

Search our weather history database for the weather conditions in past years. The results will help you decide how hot, cold, wet, or windy it might be!

Date:

Astronomy

Feb. 12, 2013 Rise Set
Actual Time 7:25 AM MST 6:08 PM MST
Civil Twilight 6:58 AM MST 6:35 PM MST
Nautical Twilight 6:27 AM MST 7:06 PM MST
Astronomical Twilight 5:56 AM MST 7:37 PM MST
Moon 8:28 AM MST (2/12) 9:08 PM MST (2/12)
Length of Visible Light 11h 37m
Length of Day
10h 43m
Waxing Crescent, 8% of the Moon is Illuminated
Feb 12
Waxing Crescent
Feb 17
First Quarter
Feb 25
Full
Mar 4
Last Quarter
Mar 11
New

Hourly Weather History & Observations

Time (MST) Temp. Windchill Dew Point Humidity Pressure Visibility Wind Dir Wind Speed Gust Speed Precip Events Conditions
12:53 AM 5.0 °F -4.1 °F 1.0 °F 84% 30.33 in 10.0 mi East 4.6 mph - N/A   Clear
1:53 AM 1.9 °F -5.6 °F -2.9 °F 80% 30.32 in 10.0 mi North 3.5 mph - N/A   Clear
2:53 AM -0.0 °F -13.0 °F -4.0 °F 83% 30.35 in 10.0 mi NE 6.9 mph - N/A   Clear
3:53 AM 3.0 °F - -2.0 °F 80% 30.36 in 10.0 mi Calm Calm - N/A   Clear
4:53 AM 1.9 °F - -4.0 °F 76% 30.38 in 10.0 mi Calm Calm - N/A   Clear
5:53 AM 1.0 °F - -2.9 °F 83% 30.40 in 10.0 mi Calm Calm - N/A   Clear
6:53 AM -0.0 °F -7.9 °F -5.1 °F 79% 30.43 in 10.0 mi ESE 3.5 mph - N/A   Clear
7:53 AM 1.0 °F - -5.1 °F 75% 30.49 in 10.0 mi Calm Calm - N/A   Clear
8:53 AM 10.0 °F 3.6 °F 7.0 °F 87% 30.46 in 10.0 mi NW 3.5 mph - N/A   Clear
9:53 AM 14.0 °F - 9.0 °F 80% 30.46 in 10.0 mi Calm Calm - N/A   Clear
10:53 AM 21.0 °F 16.2 °F 10.0 °F 63% 30.45 in 10.0 mi NE 3.5 mph - N/A   Clear
11:53 AM 23.0 °F - 10.9 °F 60% 30.46 in 10.0 mi Calm Calm - N/A   Clear
12:53 PM 30.0 °F 26.5 °F 12.9 °F 49% 30.42 in 10.0 mi NE 3.5 mph - N/A   Clear
1:53 PM 30.0 °F - 14.0 °F 51% 30.41 in 10.0 mi Calm Calm - N/A   Clear
2:53 PM 32.0 °F 28.7 °F 16.0 °F 52% 30.41 in 10.0 mi Variable 3.5 mph - N/A   Clear
3:53 PM 33.1 °F 26.9 °F 18.0 °F 54% 30.39 in 10.0 mi NE 6.9 mph - N/A   Clear
4:53 PM 32.0 °F 26.4 °F 17.1 °F 54% 30.40 in 10.0 mi NNE 5.8 mph - N/A   Clear
5:53 PM 28.9 °F 22.8 °F 16.0 °F 58% 30.42 in 10.0 mi North 5.8 mph - N/A   Clear
6:53 PM 21.0 °F - 12.9 °F 71% 30.45 in 10.0 mi Calm Calm - N/A   Clear
7:53 PM 19.9 °F 14.9 °F 12.9 °F 74% 30.46 in 10.0 mi North 3.5 mph - N/A   Clear
8:53 PM 16.0 °F - 10.0 °F 77% 30.46 in 10.0 mi Calm Calm - N/A   Clear
9:53 PM 17.1 °F - 12.0 °F 81% 30.43 in 10.0 mi Calm Calm - N/A   Clear
10:53 PM 15.1 °F 9.4 °F 10.0 °F 80% 30.41 in 10.0 mi NE 3.5 mph - N/A   Clear
11:53 PM 14.0 °F 8.2 °F 10.0 °F 84% 30.40 in 10.0 mi East 3.5 mph - N/A   Clear